Location: Bonnemazon
(43.1044°N, 0.2698°E)
Time: 03:52:51
(UTC+00:00)

Daily predictions for brighter satellites

Satellite Brightness Start Highest point End
(mag) Time Altitude Azimuth Time Altitude Azimuth Time Altitude Azimuth
Cosmos 1943 Rocket 3.1 04:06:39 45° NE 04:06:39 45° NE 04:10:44 10° NNE
Cosmos 2082 Rocket 4.4 04:15:38 13° S 04:15:38 13° S 04:16:16 10° S
CENTAUR R/B 2.6 04:16:09 69° NE 04:16:09 69° NE 04:22:15 10° NE
Cosmos 2297 4.1 04:21:07 59° NE 04:21:07 59° NE 04:25:46 10° NNE
NOSS 3-2 (A) 3.8 04:27:50 48° N 04:27:50 48° N 04:32:42 10° NNE
NOSS 3-2 (C) 3.1 04:33:35 81° S 04:33:52 86° ESE 04:40:13 10° NE
Envisat 4.1 04:32:06 10° NNE 04:36:57 43° E 04:41:45 10° S
Meteor 2-3 Rocket 3.6 04:35:22 10° S 04:41:01 87° E 04:46:47 10° N
Cosmos 968 Rocket 3.5 04:42:38 45° S 04:44:14 78° ESE 04:49:23 10° NNE
Genesis I 3.8 04:49:24 59° E 04:49:24 59° E 04:52:58 10° SE
Cosmos 921 Rocket 3.6 04:50:35 43° NNE 04:51:43 56° ENE 04:56:06 10° SSE
Meteor 1-26 Rocket 4.2 04:53:51 20° NNW 04:58:04 84° W 05:03:49 10° S
Cosmos 1812 3.6 04:56:57 32° NNE 04:58:20 49° E 05:02:03 10° SSE
Gbstr 26 Del rocket 3.9 05:01:04 33° S 05:01:04 33° S 05:03:57 10° SSE
Cosmos 1570 Rocket 4.3 05:02:25 47° SW 05:02:25 47° SW 05:06:50 10° S
USA 238 DEB 3.6 05:00:10 45° WSW 05:01:57 60° NW 05:08:44 10° NNE
USA 238 3.6 05:00:14 45° WSW 05:02:04 61° NW 05:08:51 10° NNE
Cosmos 2344 3.8 05:03:34 39° WNW 05:05:02 43° NW 05:12:31 10° NNE
Cosmos 1151 Rocket 3.7 05:01:35 14° N 05:05:13 56° E 05:09:30 10° SSE
Cosmos 1766 Rocket 4.4 05:01:10 10° S 05:05:22 50° E 05:09:35 10° NNE
Cosmos 2034 Rocket 4.4 05:09:02 40° W 05:09:02 40° W 05:14:20 10° SSW
USA 215 3.4 05:02:53 10° ESE 05:09:21 69° NE 05:13:03 28° NW
Cosmos 1782 3.2 05:15:56 44° SW 05:15:56 44° SW 05:18:56 10° S
Meteor 1-31 Rocket 2.9 05:11:28 10° NNE 05:15:22 77° E 05:19:16 10° S
Cosmos 2279 Rocket 4.2 05:09:43 10° N 05:15:55 70° E 05:22:04 10° SSE
Cosmos 1328 Rocket 4.3 05:13:34 10° N 05:17:53 53° E 05:22:08 10° SSE
Cosmos 2369 Rocket 2.0 05:14:06 10° SSW 05:19:40 78° WNW 05:25:19 10° NNE
FALCON 9 DEB 4.5 05:21:07 27° N 05:21:07 27° N 05:23:18 10° NE
SJ-12 3.8 05:16:41 10° N 05:20:48 66° WNW 05:24:53 10° SSW
Cosmos 1862 3.4 05:17:43 10° S 05:21:39 74° E 05:25:35 10° NNE
COSMO-SKYMED 1 2.4 05:18:43 10° S 05:23:03 75° WSW 05:25:48 22° NNW
H-2A R/B 2.7 05:25:08 10° N 05:28:44 50° WNW 05:32:22 10° SSW
Cosmos 1634 Rocket 4.0 05:24:48 10° NNW 05:30:58 58° W 05:37:01 10° S
Cosmos 1867 4.3 05:30:57 30° W 05:31:54 32° WSW 05:36:40 10° S
Cosmos 836 Rocket 4.4 05:27:51 16° NNW 05:32:06 83° WSW 05:37:18 10° SSE
Tsikada Rocket 4.5 05:31:16 10° SW 05:36:52 35° WNW 05:42:34 10° N
CZ-4B R/B 4.0 05:34:42 10° NNE 05:38:06 40° E 05:41:29 10° S
CZ-4B R/B 4.3 05:37:21 10° ESE 05:39:18 15° ENE 05:41:14 10° NNE
MOS 1-B Rocket 4.3 05:33:12 10° S 05:39:20 44° W 05:44:43 11° NNW
Cosmos 1408 Rocket 4.2 05:36:32 10° S 05:40:44 57° E 05:44:59 10° NNE
Cosmos 1656 Rocket 3.5 05:37:59 10° SSW 05:43:22 69° WNW 05:48:48 10° NNE
Cosmos 1503 Rocket 4.0 05:38:34 10° SSW 05:43:50 90° WNW 05:49:11 10° NNE
CZ-4C R/B 2.6 05:40:56 10° S 05:44:05 72° W 05:46:01 21° NNW
DMSP B5D2-2 4.4 05:39:19 10° SSE 05:44:28 69° ENE 05:49:40 10° N
CZ-2C R/B 2.9 05:43:12 10° S 05:48:29 47° W 05:53:41 10° NNW
Cosmos 1943 Rocket 3.2 05:48:15 22° WNW 05:49:19 23° NW 05:53:49 10° N
Cosmos 1486 Rocket 4.2 05:46:28 10° SW 05:51:34 46° WNW 05:56:39 10° N
SL-8 R/B 3.8 05:54:22 21° WNW 05:57:32 70° NNE 06:02:18 10° ESE
Cosmos 1515 Rocket 3.6 05:53:50 10° N 05:58:14 80° E 06:02:33 10° S
Meteor 2-15 4.4 05:53:30 10° N 05:59:35 83° W 06:05:38 10° S
Cosmos 2180 Rocket 4.4 05:55:05 10° NNW 06:01:13 70° W 06:07:17 10° S
Meteor 1-27 Rocket 4.1 05:55:38 10° N 06:01:16 69° ENE 06:06:59 10° SSE
SJ 16-02 2.2 06:00:57 10° S 06:05:13 54° ESE 06:09:31 10° NNE
Cosmos 773 Rocket 4.2 06:00:17 10° NNW 06:05:32 76° ENE 06:10:43 10° SSE
CENTAUR R/B 3.7 06:03:21 16° WNW 06:07:00 26° NNW 06:13:00 10° NNE
NOAA 11 4.2 06:04:20 10° N 06:09:45 63° WNW 06:15:09 10° SSW
CZ-3 R/B 4.3 06:06:14 10° SSW 06:09:46 12° S 06:12:18 10° SSE
Alouette 2 Rocket 4.3 06:07:48 10° N 06:11:30 45° ENE 06:14:56 10° SSE
Meteor 2-19 Rocket 4.4 06:05:37 10° SSW 06:11:39 78° W 06:17:44 10° N
Cosmos 1340 Rocket 3.2 06:09:37 10° S 06:13:32 66° E 06:17:29 10° NNE
NOAA 12 4.1 06:09:39 10° NNE 06:14:57 86° WNW 06:20:11 10° SSW
Envisat 4.0 06:11:39 10° NNW 06:15:43 25° WNW 06:19:45 10° WSW
Cosmos 1500 Rocket 3.7 06:12:29 10° S 06:16:56 81° E 06:21:26 10° N
SL-27 R/B 2.5 06:15:09 10° NNW 06:18:44 83° ENE 06:22:17 10° SSE
DELTA 2 R/B (1) 4.1 06:14:47 10° WSW 06:20:12 58° S 06:25:39 10° E
Cosmos 1939 Rocket 2.7 06:17:29 10° N 06:21:26 81° WNW 06:25:18 10° SSW
Cosmos 2098 Rocket 4.3 06:19:02 10° WSW 06:21:58 20° WNW 06:25:23 10° NNW
Cosmos 1805 Rocket 4.2 06:24:16 10° S 06:28:36 62° E 06:32:56 10° NNE
Sich 1 4.1 06:26:19 10° SSE 06:30:27 49° E 06:34:36 10° NNE
H-2A R/B 2.1 06:27:01 10° S 06:31:11 59° WSW 06:35:29 10° NNW
Okean O Rocket 4.2 06:28:09 10° NE 06:31:50 25° E 06:35:29 10° SSE
ATLAS 3B R/B 3.0 06:26:50 10° SSW 06:33:16 73° ESE 06:40:04 10° NE
FALCON 9 R/B 4.3 06:16:28 10° W 06:35:04 42° SSW 06:40:47 10° SE
Cosmos 1174 3.0 06:33:54 10° SSW 06:36:53 86° NW 06:39:57 10° NNE
Cosmos 1500 4.4 06:33:28 10° SSE 06:37:08 47° E 06:40:48 10° NNE
ATLAS 5 CENTAUR R/B 1.3 06:33:32 10° SW 06:37:19 89° WNW 06:41:33 10° NE
ADEOS 4.3 06:35:21 10° N 06:39:51 30° WNW 06:44:20 10° SW
Cosmos 158 Rocket 4.3 06:35:48 10° NNW 06:40:55 69° ENE 06:46:08 10° SSE
